Location: A�n Tadlesse
(35.0351°N, 0.5353°E)
Time: 22:47:29
(UTC+00:00)

CENTAUR R/B - Pass Details

Date: 21 October 2019
Orbit: 781 x 1407 km, 63.4° (Epoch: 10 November)

Event Time Altitude Azimuth Distance (km) Brightness Sun altitude
Rises 18:29:24 0° 197° (SSW) 3,328 5.6 -15.7°
Reaches altitude 10° 18:31:44 10° 192° (SSW) 2,448 4.8 -16.2°
Maximum altitude 18:37:14 57° 115° (ESE) 1,072 2.4 -17.3°
Enters shadow 18:42:40 14° 41° (NE) 2,485 4.3 -18.4°
